timestamp,surface_pressure_avg,surface_temp_avg,battery_voltage,lat,long
2021-07-10 00:09:01+00:00,342.1880000000001,13.0,13.05,47.84626,-54.09684
2021-07-10 00:19:01+00:00,336.6396,13.0,12.73,47.84626,-54.09684
2021-07-10 00:29:01+00:00,340.1846,13.0,12.73,47.84626,-54.09684
2021-07-10 00:39:01+00:00,339.0613,13.0,12.73,47.84626,-54.09684
2021-07-10 00:49:01+00:00,331.9980000000001,13.0,12.73,47.84626,-54.09684
2021-07-10 00:59:01+00:00,330.9313,13.01,12.73,47.84626,-54.09684
2021-07-10 01:09:01+00:00,328.848,13.05,12.73,47.84626,-54.09684
2021-07-10 01:19:01+00:00,323.7214,13.1,12.73,47.84626,-54.09684
2021-07-10 01:29:01+00:00,318.318,13.12,12.73,47.84626,-54.09684
2021-07-10 01:39:01+00:00,315.6563,13.2,12.73,47.84626,-54.09684
2021-07-10 01:49:01+00:00,309.4047,13.23,12.73,47.84626,-54.09684
2021-07-10 01:59:01+00:00,300.3931,13.27,12.73,47.84626,-54.09684
2021-07-10 02:09:01+00:00,297.6664,13.28,12.73,47.84626,-54.09684
2021-07-10 02:19:01+00:00,293.873,13.28,12.73,47.84626,-54.09684
2021-07-10 02:29:01+00:00,286.5046,13.28,12.73,47.84626,-54.09684
2021-07-10 02:39:01+00:00,279.6964,13.29,12.73,47.84626,-54.09684
2021-07-10 02:49:01+00:00,275.473,13.2,12.73,47.84626,-54.09684
2021-07-10 02:59:01+00:00,269.4631,13.2,12.73,47.84626,-54.09684
2021-07-10 03:09:01+00:00,260.5331,13.2,12.73,47.84626,-54.09684
2021-07-10 03:19:01+00:00,253.0781,13.25,12.73,47.84626,-54.09684
2021-07-10 03:29:01+00:00,245.5014,13.28,12.73,47.84626,-54.09684
2021-07-10 03:39:01+00:00,237.4597,13.3,12.73,47.84626,-54.09684
2021-07-10 03:49:01+00:00,230.3048,13.3,12.73,47.84626,-54.09684
2021-07-10 03:59:01+00:00,222.3581,13.3,12.73,47.84626,-54.09684
2021-07-10 04:09:01+00:00,217.3514,13.3,12.73,47.84626,-54.09684
2021-07-10 04:19:00+00:00,212.7864,13.3,12.73,47.84626,-54.09684
2021-07-10 04:29:00+00:00,207.1548,13.3,12.73,47.84626,-54.09684
2021-07-10 04:39:00+00:00,199.6782,13.3,12.73,47.84626,-54.09684
2021-07-10 04:49:00+00:00,193.8514,13.3,12.73,47.84626,-54.09684
2021-07-10 04:59:00+00:00,189.2948,13.3,12.73,47.84626,-54.09684
2021-07-10 05:09:00+00:00,185.1132,13.3,12.73,47.84626,-54.09684
2021-07-10 05:19:01+00:00,181.6014,13.3,12.65,47.84626,-54.09684
2021-07-10 05:29:01+00:00,181.6415,13.3,12.65,47.84626,-54.09684
2021-07-10 05:39:01+00:00,181.2815,13.3,12.65,47.84626,-54.09684
2021-07-10 05:49:01+00:00,176.3498,13.29,12.65,47.84626,-54.09684
2021-07-10 05:59:01+00:00,174.1448,13.29,12.65,47.84626,-54.09684
2021-07-10 06:09:01+00:00,180.3281,13.29,12.65,47.84626,-54.09684
2021-07-10 06:19:00+00:00,185.3582,13.29,12.65,47.84626,-54.09684
2021-07-10 06:29:00+00:00,181.4948,13.29,12.65,47.84626,-54.09684
2021-07-10 06:39:00+00:00,181.7981,13.29,12.65,47.84626,-54.09684
2021-07-10 06:49:00+00:00,192.1848,13.29,12.65,47.84626,-54.09684
2021-07-10 06:59:00+00:00,195.6831,13.29,12.65,47.84626,-54.09684
2021-07-10 07:09:00+00:00,194.8398,13.29,12.65,47.84626,-54.09684
2021-07-10 07:19:01+00:00,203.5065,13.3,12.65,47.84626,-54.09684
2021-07-10 07:29:01+00:00,207.3915,13.29,12.65,47.84626,-54.09684
2021-07-10 07:39:01+00:00,204.5931,13.29,12.65,47.84626,-54.09684
2021-07-10 07:49:01+00:00,212.1664,13.3,12.65,47.84626,-54.09684
2021-07-10 07:59:01+00:00,221.1014,13.29,12.65,47.84626,-54.09684
2021-07-10 08:09:01+00:00,216.9931,13.28,12.65,47.84626,-54.09684
2021-07-10 08:19:00+00:00,218.4331,13.29,12.65,47.84626,-54.09684
2021-07-10 08:29:00+00:00,227.3765,13.28,12.65,47.84626,-54.09684
2021-07-10 08:39:00+00:00,233.1497,13.27,12.65,47.84626,-54.09684
2021-07-10 08:49:00+00:00,235.7364,13.24,12.65,47.84626,-54.09684
2021-07-10 08:59:00+00:00,243.6247,13.2,12.65,47.84626,-54.09684
2021-07-10 09:09:00+00:00,252.3531,13.2,12.65,47.84626,-54.09684
2021-07-10 09:19:01+00:00,256.218,13.2,12.65,47.84626,-54.09684
2021-07-10 09:29:01+00:00,258.4847,13.2,12.65,47.84626,-54.09684
2021-07-10 09:39:01+00:00,267.6147,13.2,12.65,47.84626,-54.09684
2021-07-10 09:49:01+00:00,275.3314,13.2,12.65,47.84626,-54.09684
2021-07-10 09:59:01+00:00,275.9314,13.2,12.65,47.84626,-54.09684
2021-07-10 10:09:01+00:00,279.2264,13.2,12.65,47.84626,-54.09684
2021-07-10 10:19:01+00:00,290.1297,13.2,12.65,47.84626,-54.09684
2021-07-10 10:29:01+00:00,296.4264,13.2,12.65,47.84626,-54.09684
2021-07-10 10:39:01+00:00,297.3447,13.2,12.65,47.84626,-54.09684
2021-07-10 10:49:01+00:00,301.2214,13.2,12.65,47.84626,-54.09684
2021-07-10 10:59:01+00:00,309.6913,13.2,12.65,47.84626,-54.09684
2021-07-10 11:09:01+00:00,312.0114,13.2,12.65,47.84626,-54.09684
2021-07-10 11:19:01+00:00,312.9147,13.2,12.65,47.84626,-54.09684
2021-07-10 11:29:01+00:00,313.4147,13.19,12.65,47.84626,-54.09684
2021-07-10 11:39:01+00:00,316.8947,13.19,12.65,47.84626,-54.09684
2021-07-10 11:49:01+00:00,318.0729,13.18,12.65,47.84626,-54.09684
2021-07-10 11:59:01+00:00,316.6964,13.16,12.65,47.84626,-54.09684
2021-07-10 12:09:01+00:00,316.1831,13.16,12.65,47.84626,-54.09684
2021-07-10 12:19:01+00:00,316.2596,13.17,12.65,47.84626,-54.09684
2021-07-10 12:29:01+00:00,315.7763,13.18,12.65,47.84626,-54.09684
2021-07-10 12:39:01+00:00,314.7496,13.19,12.65,47.84626,-54.09684
2021-07-10 12:49:01+00:00,316.5663,13.19,12.65,47.84626,-54.09684
2021-07-10 12:59:01+00:00,317.9464,13.19,12.65,47.84626,-54.09684
2021-07-10 13:09:01+00:00,313.1463,13.15,12.65,47.84626,-54.09684
2021-07-10 13:19:01+00:00,309.5146,13.18,12.73,47.84626,-54.09684
2021-07-10 13:29:01+00:00,310.2996,13.19,12.73,47.84626,-54.09684
2021-07-10 13:39:01+00:00,311.0563,13.16,12.73,47.84626,-54.09684
2021-07-10 13:49:01+00:00,303.7329,13.14,12.73,47.84626,-54.09684
2021-07-10 13:59:01+00:00,293.6964,13.15,12.73,47.84626,-54.09684
2021-07-10 14:09:01+00:00,292.838,13.13,12.73,47.84626,-54.09684
2021-07-10 14:19:01+00:00,289.2264,13.1,12.81,47.84626,-54.09684
2021-07-10 14:29:01+00:00,279.4763,13.1,12.81,47.84626,-54.09684
2021-07-10 14:39:01+00:00,270.4031,13.1,12.81,47.84626,-54.09684
2021-07-10 14:49:01+00:00,266.743,13.1,12.81,47.84626,-54.09684
2021-07-10 14:59:01+00:00,262.1614,13.12,12.81,47.84626,-54.09684
2021-07-10 15:09:01+00:00,253.6231,13.16,12.81,47.84626,-54.09684
2021-07-10 15:19:01+00:00,249.5931,13.17,13.05,47.84626,-54.09684
2021-07-10 15:29:01+00:00,245.9781,13.18,13.05,47.84626,-54.09684
2021-07-10 15:39:01+00:00,239.6231,13.19,13.05,47.84626,-54.09684
2021-07-10 15:49:01+00:00,232.9198,13.2,13.05,47.84626,-54.09684
2021-07-10 15:59:01+00:00,229.0964,13.2,13.05,47.84626,-54.09684
2021-07-10 16:09:01+00:00,225.3914,13.2,13.05,47.84626,-54.09684
2021-07-10 16:19:01+00:00,220.0614,13.2,13.05,47.84626,-54.09684
2021-07-10 16:29:01+00:00,213.4215,13.22,13.05,47.84626,-54.09684
2021-07-10 16:39:01+00:00,210.2331,13.27,13.05,47.84626,-54.09684
2021-07-10 16:49:01+00:00,211.3398,13.29,13.05,47.84626,-54.09684
2021-07-10 16:59:01+00:00,208.7547,13.3,13.05,47.84626,-54.09684
2021-07-10 17:09:01+00:00,203.9214,13.3,13.05,47.84626,-54.09684
2021-07-10 17:19:01+00:00,205.1147,13.3,13.21,47.84626,-54.09684
2021-07-10 17:29:01+00:00,206.2231,13.3,13.21,47.84626,-54.09684
2021-07-10 17:39:01+00:00,203.0698,13.3,13.21,47.84626,-54.09684
2021-07-10 17:49:01+00:00,203.6698,13.32,13.21,47.84626,-54.09684
2021-07-10 17:59:01+00:00,205.9931,13.33,13.21,47.84626,-54.09684
2021-07-10 18:09:01+00:00,204.7314,13.36,13.21,47.84626,-54.09684
2021-07-10 18:19:01+00:00,202.1298,13.33,13.29,47.84626,-54.09684
2021-07-10 18:29:01+00:00,203.4431,13.35,13.29,47.84626,-54.09684
2021-07-10 18:39:01+00:00,205.9814,13.36,13.29,47.84626,-54.09684
2021-07-10 18:49:01+00:00,208.0764,13.34,13.29,47.84626,-54.09684
2021-07-10 18:59:01+00:00,208.0448,13.35,13.29,47.84626,-54.09684
2021-07-10 19:09:01+00:00,210.6365,13.39,13.29,47.84626,-54.09684
2021-07-10 19:19:01+00:00,217.1031,13.39,13.21,47.84626,-54.09684
2021-07-10 19:29:01+00:00,222.6248,13.38,13.21,47.84626,-54.09684
2021-07-10 19:39:01+00:00,223.3548,13.38,13.21,47.84626,-54.09684
2021-07-10 19:49:01+00:00,225.7764,13.39,13.21,47.84626,-54.09684
2021-07-10 19:59:01+00:00,232.6998,13.39,13.21,47.84626,-54.09684
2021-07-10 20:09:01+00:00,237.4798,13.37,13.21,47.84626,-54.09684
2021-07-10 20:19:01+00:00,237.5748,13.36,12.97,47.84626,-54.09684
2021-07-10 20:29:01+00:00,240.6731,13.38,12.97,47.84626,-54.09684
2021-07-10 20:39:01+00:00,249.5414,13.4,12.97,47.84626,-54.09684
2021-07-10 20:49:01+00:00,254.8914,13.39,12.97,47.84626,-54.09684
2021-07-10 20:59:01+00:00,254.6864,13.37,12.97,47.84626,-54.09684
2021-07-10 21:09:01+00:00,258.7381,13.36,12.97,47.84626,-54.09684
2021-07-10 21:19:01+00:00,270.9497,13.37,12.97,47.84626,-54.09684
2021-07-10 21:29:01+00:00,276.5497,13.38,12.97,47.84626,-54.09684
2021-07-10 21:39:01+00:00,278.1564,13.34,12.97,47.84626,-54.09684
2021-07-10 21:49:01+00:00,287.0597,13.38,12.97,47.84626,-54.09684
2021-07-10 21:59:01+00:00,298.6513,13.39,12.97,47.84626,-54.09684
2021-07-10 22:09:01+00:00,302.5731,13.39,12.97,47.84626,-54.09684
2021-07-10 22:19:01+00:00,308.0397,13.4,12.97,47.84626,-54.09684
2021-07-10 22:29:01+00:00,321.1246,13.4,12.97,47.84626,-54.09684
2021-07-10 22:39:01+00:00,329.0613,13.4,12.97,47.84626,-54.09684
2021-07-10 22:49:01+00:00,329.7362,13.45,12.97,47.84626,-54.09684
2021-07-10 22:59:01+00:00,331.1546,13.49,12.97,47.84626,-54.09684
2021-07-10 23:09:01+00:00,339.1063,13.5,12.97,47.84626,-54.09684
2021-07-10 23:19:01+00:00,343.4963,13.5,12.81,47.84626,-54.09684
2021-07-10 23:29:01+00:00,345.9396,13.5,12.81,47.84626,-54.09684
2021-07-10 23:39:01+00:00,346.7697,13.5,12.81,47.84626,-54.09684
2021-07-10 23:49:01+00:00,350.1813,13.5,12.81,47.84626,-54.09684
2021-07-10 23:59:01+00:00,354.6646,13.5,12.81,47.84626,-54.09684
